Regional Weather Roundup
Issued by NWS Upton, NY

Current Version | Previous Version | Text Only | Print | Product List | Glossary Off
Versions: 1 2 3 4 5 6 7 8 9 10 11 12 13 14 15 16 17 18 19 20 21 22 23 24 25 26 27 28 29 30 31 32 33 34 35 36 37 38 39 40 41 42 43 44 45 46 47 48 49 50

276
ASUS41 KOKX 252005
RWROKX

Regional Weather Roundup
National Weather Service New York NY
400 PM EDT WED APR 25 2018

Note: "FAIR" indicates few or no clouds below 12,000 feet with no
significant weather and/or obstructions to visibility.

NYZ071-072-176-178-NJZ106-104-252100-
New York City Metro Area

CITY           SKY/WX    TMP DP  RH WIND       PRES   REMARKS
Central Park   CLOUDY    58  57  97 CALM      29.73F FOG
Bronx Bot Gard   N/A     55  54  94 NE6       29.73S
Bronx Lehman C   N/A     55  55 100 E7          N/A
LaGuardia Arpt DRZL/FOG  59  57  93 E8        29.71F VSB 1
Queens College   N/A     57  57 100 SE5         N/A
Kennedy Intl   FOG       55  55 100 SE7       29.71F VSB 1/2
Breezy Point     N/A     50 N/A N/A E5          N/A
Brooklyn Coll    N/A     55  54  94 SE5         N/A
Staten Island    N/A     54  54 100 E7          N/A
Newark/Liberty FOG       56  56 100 E6        29.70F VSB 3/4
Teterboro      LGT RAIN  59  58  96 E6        29.69F FOG
$$

NYZ177-179-078>081-252100-
Long Island New York

CITY           SKY/WX    TMP DP  RH WIND       PRES   REMARKS
Jones Beach      N/A     52 N/A N/A SE7         N/A
Wantagh          N/A     54  54 100 E8          N/A
Hempstead        N/A     55  55 100 S3        29.74F
Matinecock Pt    N/A     48 N/A N/A E12         N/A
Farmingdale    FOG       56  56 100 SE8       29.72F VSB 1/2
MacArthur/ISP  FOG       56  56 100 SE8       29.72F VSB 1/4
Stony Brook      N/A     57  57 100 S8          N/A
Shirley        CLOUDY    54  54 100 SE6       29.74F FOG
Mt Sinai Harb    N/A    N/A N/A N/A S8          N/A
Westhampton    FOG       54  52  93 SE8G18    29.75F VSB 1/4
East Hampton   FOG       51  51  99 SE9       29.75F VSB 1/2
Southold         N/A     55  54  94 SE12        N/A
Montauk          N/A     53  52  96 SE9G23    29.78F
$$

NYZ052-065-067-252100-
Hudson Valley

CITY           SKY/WX    TMP DP  RH WIND       PRES   REMARKS
White Plains   DRZL/FOG  56  56 100 VRB7      29.71F VSB 3/4
Larchmont Harb   N/A     50 N/A N/A NE14        N/A
Croton On Huds   N/A     57 N/A N/A CALM        N/A
Somers           N/A     57  55  94 E7          N/A
Brewster         N/A     57  55  94 SE5         N/A
Newburgh       LGT RAIN  59  59 100 E7        29.73F FOG
Montgomery     LGT RAIN  57  56  96 N9        29.71F FOG
Otisville        N/A     55  55 100 NE6         N/A
Warwick          N/A     59  59 100 E6          N/A
Suffern          N/A     59  59 100 E3          N/A
Poughkeepsie   CLOUDY    58  56  93 NW6       29.71F FOG
Albany         CLOUDY    56  53  90 N6        29.77F FOG
$$

NJZ001-105-106-008-010-013-015-019>022-104-252100-
New Jersey

CITY           SKY/WX    TMP DP  RH WIND       PRES   REMARKS
Newark/Liberty FOG       56  56 100 E6        29.70F VSB 3/4
Teterboro      LGT RAIN  59  58  96 E6        29.69F FOG
Caldwell       CLOUDY    58  58 100 E8        29.71F FOG
Somerville     CLOUDY    59  58  96 NE6       29.67F FOG
Linden         CLOUDY    55  55  98 CALM      29.70F FOG
Perth Amboy      N/A     54 N/A N/A NE7         N/A
Sussex         CLOUDY    60  58  92 N9        29.70F
Andover          N/A     60  58  92 CALM      29.69F
Trenton        CLOUDY    63  61  93 CALM      29.67F FOG
Millville      PTSUNNY   70  59  68 S6        29.65F
Atlantic City  FAIR      68  60  75 SE7       29.67F
Wrightstown    CLOUDY    67  62  81 NE3       29.64
Toms River     CLOUDY    64  61  90 VRB3      29.68F
Belmar         CLOUDY    57  56  96 SE6       29.70F
$$

PAZ047>061-062-071-252100-
Eastern Pennsylvania

CITY           SKY/WX    TMP DP  RH WIND       PRES   REMARKS
Philadelphia   PTSUNNY   68  59  73 SE5       29.66F
Allentown      CLOUDY    61  57  87 NE5       29.69F
Scranton       CLOUDY    60  58  92 N5        29.70F
$$

CTZ002-004>006-009-010-012-RIZ004-006-007-MAZ004-011-015-252100-
Southern New England

 In CT

CITY           SKY/WX    TMP DP  RH WIND       PRES   REMARKS
Bradley Intl   LGT RAIN  58  57  97 E7        29.78F FOG
Hartford       CLOUDY    59  57  93 SE3       29.76F FOG
Danbury        CLOUDY    57  56  96 E8        29.74F FOG
Wtrbury/Oxford LGT RAIN  56  55  97 E8        29.76F VSB 1
Norwalk Harbor   N/A     50 N/A N/A NE15        N/A
Bridgeport     FOG       51  50  96 NE14      29.74F VSB 1/2
Meriden        CLOUDY    57  55  93 S8        29.76F FOG
New Haven      CLOUDY    55  53  93 E12       29.74F FOG
Chester        LGT RAIN  54  54 100 SE12      29.77F VSB 1/4
Groton         CLOUDY    51  51 100 E18G28    29.77F FOG
Willimantic    LGT RAIN  58  56  93 VRB6      29.79F FOG

 In RI

CITY           SKY/WX    TMP DP  RH WIND       PRES   REMARKS
Providence     HVY RAIN  56  56 100 S6        29.81F VSB 1
Block Island   LGT RAIN  50  50 100 SE15G24   29.79F FOG
Westerly       LGT RAIN  53  53 100 SE14      29.80F FOG

In MA

CITY           SKY/WX    TMP DP  RH WIND       PRES   REMARKS
Boston         NOT AVBL
Worcester      LGT RAIN  54  53  97 E8        29.83F VSB 1/2
Westfield      LGT RAIN  58  58 100 CALM      29.78F VSB 1
Provincetown   LGT RAIN  53  52  96 SE16G23   29.90F FOG
Nantucket      LGT RAIN  51  51 100 SE23G32   29.86F FOG
$$

ANZ330-335-338-340-345-350-353-355-252100-
Coastal Marine Observations


STATION/POSITION TIME  SKY/WX   TEMP    WIND        PRES    VSBY  WAVE
                                AIR SEA DIR/SP/G                  HT/PER
                 (UTC)          (F)     (DEG/KT/KT) (MB)    (MI)  (FT/S)
NY Harb Entrance 1950            49 45  150/  8/ 12 1005.6          8/10
20 S Fire Island 1950            49 44  150/ 10/ 14 1006.2         10/10
23 SSW Montauk P 1950            49 44  150/ 10/ 12 1007.6         10/10
15 E Barnegat Li 1930               46                N/A          10/12
Hudson Canyon    1950            51 45  150/ 12/ 14 1005.9         15/11
Kings Point      1936            57 47  190/  6/  9 1007.3
Execution Rocks  NOT AVBL
Western LI Sound NOT AVBL
Central LI Sound 1915            51     110/  8/ 12   N/A           2
Robbins Reef     1948            55     120/  9/ 12 1006.3
$$


>>>>>>>>>>>>>>>>>>>>>>>>>>>> KEY <<<<<<<<<<<<<<<<<<<<<<<<<<<
>                                                          <
>     SKY/WX - Sky Condition/Present Weather               <
>     TMP    - Temperature in Fahrenheit                   <
>     DP     - Dew Point in Fahrenheit                     <
>     RH     - Relative Humidity in Percent                <
>     WIND   - Direction (from) and Speed in MPH           <
>     PRES   - Mean Sea Level Pressure (inches of Hg)      <
>     WCI    - Wind Chill Index                            <
>     VSB    - Visibility in Miles                         <
>     HX     - Heat Index                                  <
>     TC     - Temperature in Celsius                      <
>     VRB    - Varibale Wind Direction                     <
>                                                          <
>>>>>>>>>>>>>>>>>>>>>>>>>>>> KEY <<<<<<<<<<<<<<<<<<<<<<<<<<<




USA.gov is the U.S. government's official web portal to all federal, state and local government web resources and services.